Regional Weather Roundup
Issued by NWS

Home | Current Version | Previous Version | Text Only | Print | Product List | Glossary Off
Versions: 1 2 3 4 5 6 7 8 9 10 11 12 13 14 15 16 17 18 19 20 21 22 23 24 25 26 27 28 29 30 31 32 33 34 35 36 37 38 39 40 41 42 43 44 45 46 47 48 49 50

633
ASUS45 KTFX 060310
RWRMT
MONTANA REGIONAL WEATHER ROUNDUP
NATIONAL WEATHER SERVICE GREAT FALLS MT
800 PM MST MON DEC 05 2016

NOTE: "FAIR" INDICATES FEW OR NO CLOUDS BELOW 12000 FEET WITH NO
SIGNIFICANT WEATHER AND/OR OBSTRUCTIONS TO VISIBILITY.

MTZ001>007-043-060400-
WEST OF THE DIVIDE

CITY           SKY/WX    TMP DP  RH WIND       PRES   REMARKS
KALISPELL      CLOUDY    20  16  84 SE3       30.02S
MISSOULA       CLOUDY    22  17  81 CALM      30.02S
BUTTE          CLOUDY    15   4  61 W3        29.91R
MULLAN PASS    CLOUDY    12  10  92 S5        29.83S
ANACONDA         N/A     16  10  79 CALM      29.94R
DEER LODGE       N/A     18  14  86 CALM      29.97S
EUREKA           N/A     21  18  86 CALM      30.02F
HAMILTON         N/A     21  10  63 S6        29.99S WCI  14
LIBBY            N/A     18  14  86 CALM      30.03R
RONAN            N/A     22  15  74 CALM      30.04F
$$

MTZ008-052>055-060400-
SOUTHWEST MONTANA

CITY           SKY/WX    TMP DP  RH WIND       PRES   REMARKS
BOZEMAN        FLURRIES  18  15  88 NE5       29.96R
DILLON         CLEAR     11  -1  58 S10       29.92R WCI  -3
W YELLOWSTONE  CLOUDY     5   0  78 SW7       29.88F WCI  -7
ENNIS          MOCLDY    14   0  52 SE12      29.96R WCI   0
THREE FORKS      N/A     17 -33   9 CALM      29.96S
TWIN BRIDGES     N/A     16  -1  47 SE1       29.93S
$$

MTZ009-010-012-014-046-048-049-054-060400-
EAST SLOPES AND CENTRAL MONTANA

CITY           SKY/WX    TMP DP  RH WIND       PRES   REMARKS
CUT BANK       LGT SNOW   6   1  80 NW15      30.07R WCI -12
GREAT FALLS    CLOUDY     7   1  76 NW7       30.09R WCI  -5
MALMSTROM AFB  FLURRIES   8   4  82 NW6       30.11R WCI  -2
HELENA         CLOUDY    12   4  70 NW12      30.03R WCI  -2
AUGUSTA        MOCLDY    -1  -5  83 N6        30.02R WCI -13
BOWMANS CRNR   MOCLDY    -1  -3  90 NW3       30.02R
CHOTEAU          N/A      1  -2  85 MISG      30.09R
CONRAD           N/A      8   2  76 W5        30.08S
FAIRFIELD      CLOUDY     1  -3  83 W1        30.07R
POWER          CLOUDY     5   0  81 W7        30.07R WCI  -7
RAYNESFORD     FLURRIES   6   3  85 W5        30.06R
ULM            SNOWSHWR   7   3  83 N9        30.10R WCI  -6
$$

MTZ011-013-016-021-045-047-050-051-060400-
NORTH CENTRAL MONTANA

CITY           SKY/WX    TMP DP  RH WIND       PRES   REMARKS
HAVRE          PTCLDY     6  -1  73 NW8       30.15R WCI  -7
LEWISTOWN      FLURRIES   7   3  84 NW8       30.01R WCI  -6
N BAR RANCH    CLOUDY     7   0  72 NW17G23   29.95R WCI -12
CHINOOK          N/A      5  -2  72 W10       30.15R WCI -10
DENTON         FLURRIES   9   4  78 W14G35    30.02R WCI  -7
GEYSER         CLOUDY     6   3  84 W18G25    30.01R WCI -13
GRASS RANGE      N/A      8   3  79 W21       29.96R WCI -11
JUDITH GAP       N/A      3  -1  84 NW15G23   29.95R WCI -15
ROY            CLOUDY     8   4  82 MISG      29.98S
STANFORD       CLOUDY     5   0  81 NW21G28   29.97S WCI -16
WINIFRED       FLURRIES   8   3  82 MISG      30.02S
$$

MTZ017>020-022>027-061-062-060400-
NORTHEAST MONTANA

CITY           SKY/WX    TMP DP  RH WIND       PRES   REMARKS
GLASGOW        CLOUDY     7  -1  70 NW30G37   30.04S WCI -16
JORDAN           N/A      6  -1  73 NW20      30.06R WCI -14
SIDNEY         LGT SNOW   8   4  83 NW33G41   29.92R VSB 1   WCI -16
WOLF POINT     CLOUDY    10   0  63 NW22G30   30.04R WCI -10
PLENTYWOOD       N/A      9   5  85 NW25G33   29.89R VSB 1   WCI -13
POPLAR           N/A      9   0  66 NW18      30.01  WCI -10
$$

MTZ028>42-056>058-060400-
SOUTHCENTRAL AND SOUTHEAST MONTANA

CITY           SKY/WX    TMP DP  RH WIND       PRES   REMARKS
BAKER          LGT SNOW   7   1  76 NW25G36   29.92R WCI -15
BILLINGS       CLOUDY    16   4  59 N5        30.00S
LIVINGSTON     LGT SNOW  16  10  77 NW6       29.93R WCI   7
MILES CITY     CLOUDY    10   0  63 NW21      30.04R WCI  -9
BIG TIMBER     CLOUDY    18  10  73 W9        29.96S WCI   6
FORSYTH          N/A     12   3  67 W13       30.04S WCI  -3
HARLOWTON      MOCLDY     8   1  72 N22       29.94S WCI -12
LAUREL           N/A     14  -3  47 N1        29.97S
$$

REGIONAL REPORTS...DAKOTAS

CITY           SKY/WX    TMP DP  RH WIND       PRES   REMARKS
WILLISTON      LGT SNOW  11   6  81 NW28G40   29.88R VSB 3/4 WCI -10
MINOT          LGT SNOW  23  20  88 NW24      29.63S FOG     WCI   7
DICKINSON      MIX PCPN   6   2  83 W31G41    29.78F VSB 3/4 WCI -18
BEACH          LGT SNOW   7   3  85 NW28G36   29.93R VSB 1   WCI -16
CROSBY         SNOW      12  12 100 NW32G41   29.84R VSB 1/2 WCI -10
TIOGA          HVY SNOW  10  10 100 NW33G45   29.79R VSB 1/4 WCI -13
WATFORD CITY   LGT SNOW   9   7  92 NW25G36   29.85S WCI -13
BISMARCK       LGT SNOW  14  11  87 W26G38    29.70S FOG     WCI  -6
GRAND FORKS    HVY SNOW  30  27  88 NE15      29.49F VSB 1/4 WCI  19
FARGO          LGT SNOW  34  31  88 VRB3      29.41F FOG
BUFFALO SD       N/A     11   5  77 NW33      29.79R WCI -12
RAPID CITY     CLEAR     16   9  74 N14       29.86R WCI   2
$$

REGIONAL REPORTS...WYOMING/IDAHO/WASHINGTON

CITY           SKY/WX    TMP DP  RH WIND       PRES   REMARKS
GILLETTE       CLOUDY    11   5  77 NW14      29.92R WCI  -5
SHERIDAN       CLEAR     13   2  61 W13       29.97S WCI  -2
BUFFALO WY     CLEAR     12   4  70 N5        29.91R
CODY           CLEAR      3  -1  83 S3        29.94S
YELLOWSTONE LA   N/A     -4  -9  79 W7        29.83S WCI -18
IDAHO FALLS    CLEAR     19   9  65 S13       30.00R WCI   6
SALMON         CLOUDY     9   1  72 SE3       29.99S
BOISE          CLEAR     24  16  71 SE8       30.03F WCI  15
SPOKANE        MOCLDY    29  22  75 E6        29.98F WCI  23
$$

REGIONAL REPORTS...ALBERTA

CITY           SKY/WX    TMP DP  RH WIND       PRES   REMARKS
EDMONTON       CLOUDY     0 -13  55 NW16G23   30.25R WCI -21
CALGARY        MOCLDY    -2  -9  71 N9        30.13R WCI -18
LETHBRIDGE     CLOUDY     5  -2  72 N9        30.16R WCI  -9
MEDICINE HAT   FLURRIES   3  -2  78 NW12G17   30.19R WCI -13
WATERTON GATE    N/A      5   1  85 NE1         N/A
CARDSTON         N/A      1  -2  85 E1          N/A
MILK RIVER       N/A      0  -4  85 N8          N/A  WCI -15
$$

REGIONAL REPORTS...SASKATCHEWAN

CITY           SKY/WX    TMP DP  RH WIND       PRES   REMARKS
SWIFT CURRENT  LGT SNOW   0  -2  92 NW17G23   30.01R WCI -21
REGINA         FLURRIES  10   5  79 NW23G29   29.95R WCI -10
SASKATOON      FLURRIES   9   0  66 NW13G20   30.06R WCI  -7
CYPRESS HILLS    N/A     -4  -8  84 NW13G22     N/A  WCI -23
VAL MARIE        N/A      5  -2  72 N20         N/A  WCI -15
ROCKGLEN         N/A      1   0  92 NW22G32     N/A  WCI -21
ASSINIBOIA       N/A      0  -8  71 NW15G23     N/A  WCI -20
$$




USA.gov is the U.S. government's official web portal to all federal, state and local government web resources and services.